Buffalo, NY

4:11 PM EDT on October 16, 2019 (GMT -0400)
Buffalo Niagara International

Weather History for KBUF - August, 2019

Change the Weather History Date:

Monday, August 5, 2019

  Actual Average Record
Temperature  
Mean Temperature 72 °F 71 °F  
Max Temperature 85 °F 80 °F 93 °F (1947)
Min Temperature 59 °F 62 °F 45 °F (1972)
Degree Days  
Heating Degree Days 0 0  
Month to date heating degree days 0 0  
Since 1 June heating degree days 62 73  
Since 1 July heating degree days 0 9  
Cooling Degree Days 7 6  
Month to date cooling degree days 37 30  
Year to date cooling degree days 405 356  
Since 1 June cooling degree days 397 330  
Growing Degree Days 22 (Base 50)    
Moisture  
Dew Point 54 °F    
Average Humidity 54    
Maximum Humidity 75    
Minimum Humidity 32    
Precipitation  
Precipitation 0.00 in 0.10 in 1.34 in (1885)
Month to date precipitation T 0.55  
Year to date precipitation 24.75 22.45  
Snow  
Snow 0.00 in 0.00 in 0.00 in ()
Month to date snowfall 0.0 0.0  
Since 1 June snowfall 0.0 0.0  
Since 1 July snowfall 0.0 0.0  
Snow Depth 0.00 in    
Sea Level Pressure  
Sea Level Pressure 29.95 in    
Wind  
Wind Speed 6 mph (South)    
Max Wind Speed 15 mph    
Max Gust Speed 25 mph    
Visibility 10 miles    
Events      
T = Trace of Precipitation, MM = Missing Value Source: NWS Daily Summary

Daily Weather History Graph

Daily Weather History Graph

Search for Another Location

Airport or City:

Astronomy

Aug. 05, 2019 Rise Set
Actual Time 6:09 AM EDT 8:31 PM EDT
Civil Twilight 5:38 AM EDT 9:02 PM EDT
Nautical Twilight 4:58 AM EDT 9:42 PM EDT
Astronomical Twilight 4:14 AM EDT 10:25 PM EDT
Moon 11:31 AM EDT (8/5) 11:34 PM EDT (8/5)
Length of Visible Light 15h 24m
Length of Day
14h 21m
Waxing Crescent, 28% of the Moon is Illuminated
Aug 5
Waxing Crescent
Aug 7
First Quarter
Aug 15
Full
Aug 23
Last Quarter
Aug 30
New

Hourly Weather History & Observations

Time (EDT) Temp. Heat Index Dew Point Humidity Pressure Visibility Wind Dir Wind Speed Gust Speed Precip Events Conditions
12:54 AM 63.0 °F - 53.1 °F 70% 30.01 in 10.0 mi SE 3.5 mph - N/A   Partly Cloudy
1:54 AM 62.1 °F - 52.0 °F 70% 30.01 in 10.0 mi SE 3.5 mph - N/A   Mostly Cloudy
2:54 AM 62.1 °F - 51.1 °F 67% 30.01 in 10.0 mi SE 4.6 mph - N/A   Scattered Clouds
3:54 AM 60.1 °F - 51.1 °F 72% 30.00 in 10.0 mi SE 4.6 mph - N/A   Scattered Clouds
4:54 AM 60.1 °F - 51.1 °F 72% 30.00 in 10.0 mi SE 4.6 mph - N/A   Partly Cloudy
5:54 AM 59.0 °F - 51.1 °F 75% 29.99 in 10.0 mi SE 5.8 mph - N/A   Partly Cloudy
6:54 AM 59.0 °F - 51.1 °F 75% 30.01 in 10.0 mi South 4.6 mph - N/A   Scattered Clouds
7:54 AM 64.0 °F - 51.1 °F 63% 29.99 in 10.0 mi SSE 3.5 mph - N/A   Partly Cloudy
8:54 AM 69.1 °F - 53.1 °F 57% 30.00 in 10.0 mi SSE 3.5 mph - N/A   Partly Cloudy
9:54 AM 75.9 °F - 55.0 °F 48% 29.99 in 10.0 mi SSE 5.8 mph - N/A   Partly Cloudy
10:54 AM 79.0 °F - 55.0 °F 44% 29.99 in 10.0 mi Variable 3.5 mph - N/A   Partly Cloudy
11:54 AM 81.0 °F 80.8 °F 55.9 °F 42% 29.98 in 10.0 mi South 4.6 mph - N/A   Partly Cloudy
12:54 PM 84.0 °F 82.9 °F 55.0 °F 37% 29.96 in 10.0 mi West 8.1 mph - N/A   Partly Cloudy
1:54 PM 84.0 °F 82.6 °F 54.0 °F 35% 29.95 in 10.0 mi WSW 8.1 mph - N/A   Scattered Clouds
2:54 PM 84.0 °F - 52.0 °F 33% 29.94 in 10.0 mi SSW 9.2 mph - N/A   Mostly Cloudy
3:54 PM 84.9 °F 83.6 °F 55.0 °F 36% 29.93 in 10.0 mi WSW 10.4 mph - N/A   Scattered Clouds
4:54 PM 84.0 °F 82.6 °F 54.0 °F 35% 29.91 in 10.0 mi SW 8.1 mph - N/A   Scattered Clouds
5:54 PM 84.0 °F 82.9 °F 55.0 °F 37% 29.89 in 10.0 mi SW 10.4 mph - N/A   Partly Cloudy
6:54 PM 82.9 °F 82.1 °F 55.9 °F 39% 29.88 in 10.0 mi WSW 9.2 mph - N/A   Partly Cloudy
7:54 PM 80.1 °F 80.2 °F 55.9 °F 43% 29.87 in 10.0 mi SW 8.1 mph - N/A   Partly Cloudy
8:54 PM 78.1 °F - 55.0 °F 45% 29.86 in 10.0 mi SW 5.8 mph - N/A   Partly Cloudy
9:54 PM 75.9 °F - 57.9 °F 54% 29.87 in 10.0 mi SW 5.8 mph - N/A   Partly Cloudy
10:54 PM 73.0 °F - 60.1 °F 64% 29.86 in 10.0 mi South 6.9 mph - N/A   Partly Cloudy
11:54 PM 72.0 °F - 61.0 °F 68% 29.86 in 10.0 mi South 4.6 mph - N/A   Partly Cloudy